GFSNE_sfc_thetae_003.txt.gz
Theta_e
293 293 293 294 294 295 295 294 291 287 288 292 292 295 298 304 304 304 306 307 304 302 303 305 308 310 312 314 318 320 320 321 321 321 320 321 321 322
292 291 291 293 293 293 294 294 293 291 287 293 293 295 296 299 304 305 303 305 303 300 300 301 302 305 307 308 312 315 317 318 319 319 319 319 320 320
289 289 289 290 290 291 291 292 291 291 288 290 293 294 293 294 296 300 302 302 301 301 299 299 299 300 301 302 303 307 314 315 316 316 317 318 319 320
288 287 287 290 287 287 288 288 289 290 288 286 290 291 291 293 292 292 297 302 300 301 300 298 298 299 299 299 299 301 302 311 311 312 313 315 316 317
286 286 287 286 285 286 286 286 287 290 288 287 287 289 289 290 290 291 291 294 298 301 298 296 296 297 299 299 299 300 300 300 307 307 308 309 311 313
285 285 284 284 283 282 284 284 285 285 286 286 286 287 288 290 288 287 287 288 290 297 298 295 295 297 298 299 298 299 299 300 300 305 304 304 305 307
283 283 283 284 287 287 285 283 283 283 283 283 283 284 285 286 284 286 285 285 287 289 289 290 290 292 296 298 299 299 298 298 299 299 303 303 302 304
280 281 282 284 284 285 286 286 284 281 281 281 281 281 283 285 285 285 284 283 283 285 288 287 288 290 291 295 295 295 297 297 298 298 300 303 301 301
280 280 281 282 283 282 283 284 284 285 284 283 281 281 281 284 285 283 286 284 283 285 288 287 282 284 285 289 290 292 294 297 297 297 297 300 301 300
280 280 280 280 281 282 281 281 281 282 284 284 284 283 284 284 284 284 285 286 285 286 286 285 277 277 280 286 288 290 293 296 296 296 297 298 299 298
281 282 282 281 283 285 283 281 281 281 285 286 287 287 287 287 286 284 281 281 282 283 285 283 281 280 277 276 283 288 289 293 295 296 296 297 297 298
281 282 283 283 284 285 283 282 280 281 282 282 283 285 287 287 287 286 284 280 280 281 281 283 280 280 276 274 279 284 285 289 293 295 296 296 296 298
280 280 281 283 284 284 285 283 282 283 283 282 282 282 283 283 285 286 286 285 282 281 284 283 279 279 277 275 278 283 284 285 286 289 293 293 294 293
279 281 281 282 283 283 284 284 284 283 283 282 282 282 282 283 284 285 286 286 286 284 284 284 281 279 277 276 277 280 282 284 284 284 284 286 286 288
282 282 283 284 284 282 283 283 283 282 280 279 279 281 282 284 285 285 285 286 286 286 286 283 281 280 280 274 277 275 280 281 283 281 280 281 281 282
281 281 281 281 280 280 280 282 282 282 282 280 279 280 283 283 283 284 284 285 284 281 284 284 283 282 280 279 279 279 279 278 281 280 279 279 279 280
279 278 277 276 277 278 278 279 280 278 281 280 279 280 281 282 284 285 283 282 279 279 279 281 282 281 280 280 277 279 278 279 281 279 279 277 278 279
278 275 275 274 274 275 276 277 279 280 279 280 280 281 281 282 282 282 282 281 279 278 278 278 278 278 278 277 280 277 278 278 278 278 278 276 276 278
277 275 273 274 273 275 275 276 277 279 281 279 280 282 282 280 281 280 280 279 277 277 277 277 276 273 272 269 275 280 277 277 276 276 277 277 276 277
277 276 276 274 275 275 275 275 276 277 278 278 281 279 280 280 280 279 278 272 275 275 275 276 277 275 275 272 271 272 280 276 276 275 274 275 278 280
274 276 275 276 276 275 274 274 274 275 275 275 276 277 277 272 273 274 274 271 271 274 274 274 274 274 274 274 270 268 270 280 278 276 275 274 274 274
272 273 273 274 275 275 275 274 273 274 274 274 274 273 274 275 275 274 272 273 273 270 271 273 275 275 272 272 267 266 269 272 277 278 278 277 273 271
270 271 271 272 272 273 275 275 274 273 273 273 273 273 273 273 274 273 272 272 273 273 273 274 274 274 272 271 268 267 266 268 269 269 270 276 277 278

GFSNE_sfc_thetae_006.txt.gz
Theta_e
290 290 291 292 292 293 292 291 288 284 286 290 291 295 296 297 299 301 302 305 304 302 301 304 306 308 308 309 310 312 314 320 321 321 321 321 322 322
290 289 290 291 291 292 292 291 290 288 284 289 290 293 295 297 299 298 299 303 302 300 298 298 302 304 304 304 305 307 308 311 316 318 319 319 320 321
288 288 288 289 289 289 289 289 289 288 285 288 291 292 292 293 295 296 297 298 299 299 296 297 298 298 298 299 299 301 304 307 307 313 317 318 320 320
286 286 287 288 286 286 286 286 286 286 286 284 287 288 289 291 292 292 294 297 297 299 299 299 298 297 295 296 296 297 299 300 302 305 311 315 317 318
286 285 285 285 283 283 283 283 284 286 285 284 283 286 288 289 289 290 291 292 295 300 298 296 296 296 296 296 297 297 297 297 297 299 300 307 312 313
283 283 283 283 282 281 282 281 283 282 283 282 283 283 284 287 287 285 286 288 288 292 296 295 295 297 296 296 295 296 296 296 297 298 297 298 302 309
282 282 282 283 286 286 284 282 282 281 280 280 280 281 281 282 282 283 283 284 286 287 288 290 291 290 292 294 296 297 297 297 297 297 297 297 298 303
280 281 281 283 283 284 285 285 284 280 279 279 279 279 279 280 282 282 282 282 282 285 287 286 289 290 291 289 293 292 292 293 295 297 297 297 298 298
280 279 280 281 282 281 283 284 284 285 283 281 280 280 280 282 281 280 281 282 283 287 286 285 284 286 284 288 290 291 291 292 293 294 296 296 295 296
280 280 280 280 281 281 281 280 281 281 282 282 282 282 283 283 283 282 281 281 282 286 287 283 283 277 276 280 288 289 290 290 290 292 294 295 295 294
281 281 282 282 283 285 282 281 281 281 284 285 286 285 286 286 285 283 281 279 278 280 284 284 283 282 276 276 277 286 288 289 289 290 292 294 295 294
279 280 282 281 283 283 281 281 280 281 281 281 282 283 285 285 286 285 284 280 279 273 280 282 276 277 279 272 273 275 278 286 288 289 292 294 294 296
279 279 280 282 283 283 283 281 281 282 282 282 282 282 282 282 282 284 285 284 281 280 282 282 277 274 275 274 272 274 276 279 285 286 290 293 294 296
279 280 281 283 283 284 283 283 283 282 282 281 280 280 281 281 282 283 284 285 285 284 283 283 278 277 273 270 273 272 272 276 283 283 284 288 291 293
281 281 282 281 281 281 282 282 281 281 281 280 279 279 281 282 283 282 281 283 282 284 285 284 283 279 280 278 274 270 272 273 278 280 280 282 283 285
279 278 278 278 276 277 278 279 280 280 281 280 279 280 281 282 282 281 279 283 282 283 285 285 284 283 280 275 278 272 276 276 273 279 279 279 280 281
278 275 275 275 275 276 276 277 278 280 279 279 280 279 279 280 280 280 282 282 281 279 280 283 284 284 282 279 275 279 274 277 275 278 279 277 278 279
278 273 273 273 273 274 274 274 276 277 279 276 273 275 275 278 279 280 281 281 280 279 278 278 278 278 278 277 281 277 276 277 274 278 279 276 276 278
276 275 273 273 273 274 274 274 274 276 278 278 281 279 281 279 282 281 281 279 278 278 278 278 279 277 273 271 273 280 276 277 275 277 278 277 276 277
274 274 273 274 274 274 273 273 273 274 274 276 276 276 277 275 276 277 277 276 275 274 275 277 277 277 274 270 268 269 280 277 277 275 275 277 278 280
272 272 272 272 273 274 273 271 271 272 273 273 273 274 274 271 273 274 273 273 272 274 273 274 274 275 274 273 269 268 273 281 279 276 276 275 274 274
270 270 271 271 271 271 272 272 271 271 271 271 272 272 273 272 273 274 272 270 271 270 272 274 276 276 271 272 266 262 269 273 278 279 279 277 274 271
268 268 269 269 270 270 270 271 273 270 271 270 270 270 271 271 271 270 270 270 272 273 273 272 273 273 272 270 269 267 267 269 270 269 268 276 279 279

GFSNE_sfc_thetae_009.txt.gz
Theta_e
291 290 289 289 289 290 291 290 287 283 283 287 288 292 293 294 297 298 298 300 300 301 300 301 306 307 307 307 309 310 310 311 315 321 321 322 322 322
290 288 288 289 289 290 290 290 289 286 283 286 287 288 291 293 296 296 297 299 299 299 298 299 300 303 304 304 304 306 307 308 308 310 318 320 321 321
287 287 287 287 287 287 287 288 287 287 284 285 287 288 288 289 291 293 295 295 297 298 297 296 297 298 299 298 299 299 300 303 307 307 309 313 320 321
285 285 285 287 285 285 285 284 284 285 284 282 284 285 286 289 290 290 293 294 294 296 297 297 298 297 296 296 295 296 297 298 299 302 304 307 308 319
284 284 284 284 282 283 283 282 282 284 283 282 281 284 285 286 287 289 289 289 292 294 294 295 296 296 296 295 295 296 296 296 296 296 297 299 303 307
282 282 281 281 281 281 281 281 281 281 281 281 280 281 282 284 284 284 284 286 287 290 292 292 293 295 296 296 295 295 296 296 296 295 295 294 295 298
281 281 281 282 285 284 283 282 281 280 280 279 279 279 279 280 280 282 282 283 285 286 286 289 289 291 292 294 296 296 295 294 296 296 296 295 295 296
279 280 280 282 282 283 284 284 283 280 279 278 278 277 278 278 279 279 279 279 279 284 284 284 287 288 290 290 292 293 293 293 293 294 294 294 294 294
279 279 280 281 282 281 282 283 283 284 283 281 280 279 279 280 281 281 279 279 280 282 285 281 281 282 286 288 291 291 291 292 292 292 291 291 292 293
280 280 280 280 281 281 281 280 281 281 281 281 281 281 281 282 282 282 281 280 281 281 284 281 280 279 278 282 288 290 291 291 290 290 290 290 291 292
280 280 280 280 282 283 281 280 280 281 284 285 285 284 284 285 284 282 280 279 277 278 279 281 279 275 274 281 281 287 289 289 289 290 290 290 290 291
279 280 281 281 282 282 281 280 279 279 280 281 282 283 285 284 285 284 283 279 279 276 278 279 276 277 280 272 272 275 278 285 287 288 289 289 290 291
278 279 280 282 282 283 283 282 281 281 280 280 281 282 282 282 282 283 284 283 281 279 281 281 276 276 276 277 271 271 276 274 278 281 287 288 289 292
279 281 281 282 282 281 281 282 282 282 281 281 280 280 281 281 282 283 283 284 284 284 283 282 279 277 275 278 279 270 269 270 272 273 276 284 286 289
281 280 280 280 280 278 279 280 279 279 279 279 279 280 281 282 282 282 282 283 284 285 285 284 282 278 278 279 274 270 272 270 270 270 272 278 280 283
279 278 277 277 276 276 277 278 278 279 279 279 279 280 281 280 281 282 281 281 281 281 284 285 284 283 281 279 280 278 269 274 272 269 270 271 276 280
278 275 275 273 273 274 275 275 276 276 276 278 278 278 279 280 279 279 281 280 279 278 280 283 285 285 284 283 278 277 276 272 272 270 270 269 271 274
276 274 272 271 270 272 272 272 273 274 275 276 277 276 276 277 277 277 281 280 279 279 278 278 279 279 279 278 282 275 276 276 273 270 270 270 270 276
273 272 271 270 271 273 272 272 271 273 274 275 276 277 278 278 278 279 280 280 279 278 277 278 278 278 275 274 275 279 276 275 271 271 271 270 271 277
272 271 270 271 271 271 272 272 271 271 271 272 273 273 274 275 276 276 277 276 274 274 274 276 278 277 276 274 272 273 279 270 267 268 270 276 277 280
270 270 270 270 270 270 269 270 269 269 268 269 269 270 270 275 275 272 273 273 274 275 274 274 274 276 275 274 270 270 273 280 276 270 271 272 271 273
268 268 269 269 269 269 268 268 271 270 269 269 269 269 269 268 271 273 271 269 271 268 271 272 276 276 274 272 268 265 267 270 275 277 278 277 274 271
267 267 267 267 268 268 268 267 268 269 270 268 267 268 266 265 268 268 267 267 268 267 267 270 272 272 271 270 269 268 267 268 269 271 269 275 279 279

GFSNE_sfc_thetae_015.txt.gz
Theta_e
293 293 292 292 294 294 293 292 288 284 286 291 291 295 296 297 298 299 300 298 296 297 298 299 299 301 302 305 306 305 304 306 308 308 308 310 313 321
294 294 293 293 294 293 292 292 291 288 284 289 290 292 294 294 296 298 297 297 296 296 297 297 298 298 298 298 300 304 304 304 305 306 307 306 309 313
293 292 292 292 291 291 291 291 289 289 286 288 291 292 292 293 293 295 296 296 297 296 295 295 296 296 297 296 297 298 300 302 302 302 304 306 305 308
290 290 289 289 289 290 289 289 289 289 287 285 288 289 290 292 293 293 293 294 295 294 294 294 295 295 295 295 296 296 296 296 298 298 299 301 303 303
288 288 287 287 286 287 287 286 287 286 287 286 285 288 289 290 289 291 291 292 292 293 292 293 294 294 294 294 296 296 295 295 295 295 296 296 297 298
287 287 286 285 285 285 284 285 285 285 285 284 284 285 286 288 288 286 287 290 289 290 291 291 291 293 294 293 294 296 295 295 295 295 294 294 294 295
286 285 285 285 284 284 284 284 285 284 283 282 281 282 282 283 282 286 285 287 288 289 289 290 292 293 293 292 293 294 295 295 295 295 295 294 293 294
283 283 284 284 284 283 283 283 284 282 281 281 281 281 282 283 284 284 284 283 282 289 287 287 290 290 291 293 291 292 294 295 295 294 295 293 292 292
282 282 282 283 283 284 283 282 282 283 282 282 281 282 282 283 283 282 283 283 283 286 286 284 288 288 291 292 291 291 292 292 293 293 293 292 291 290
282 283 282 282 283 281 282 282 283 284 284 284 283 283 284 285 284 284 283 284 285 285 287 281 287 286 289 292 290 290 291 291 292 292 292 291 290 290
282 283 283 282 282 283 282 282 282 283 285 285 285 285 285 285 285 285 282 282 281 282 286 283 285 285 287 289 292 289 289 290 291 291 291 291 290 290
282 283 282 282 282 282 282 281 280 281 282 283 284 285 286 286 285 285 284 281 281 280 285 283 283 284 283 289 290 291 291 289 289 290 291 290 290 292
281 282 283 282 281 281 281 281 280 281 281 282 282 283 284 285 285 286 286 285 283 282 285 285 283 284 284 284 287 289 290 289 289 289 288 289 289 289
280 282 283 280 280 279 279 279 280 280 281 281 280 281 282 283 284 285 286 286 287 285 286 286 284 283 283 283 283 288 289 289 289 289 289 287 285 286
282 281 280 279 278 278 278 278 279 280 280 279 280 282 283 285 285 286 286 286 286 286 286 286 286 285 285 283 283 284 286 288 288 288 288 288 289 290
280 280 278 278 277 278 278 279 279 279 278 279 280 282 284 284 284 285 284 284 283 283 285 286 286 285 284 284 284 283 285 285 287 287 288 288 288 287
279 278 276 276 276 277 277 277 278 278 278 278 280 281 282 283 283 284 283 284 282 282 283 284 285 286 286 285 284 285 285 285 287 288 283 286 288 288
276 274 273 274 274 275 275 275 277 276 277 277 279 279 280 281 281 282 282 282 282 283 283 284 285 284 284 283 283 284 285 285 287 286 285 284 286 288
273 273 272 272 273 274 274 274 274 276 276 276 277 277 278 281 281 281 282 282 282 283 284 285 284 283 280 279 282 280 283 284 285 283 284 283 284 286
272 271 271 272 272 273 273 273 274 275 275 275 276 276 276 278 279 280 281 281 282 282 282 283 283 283 281 281 281 280 280 282 282 283 282 283 282 279
270 270 271 271 271 272 272 273 273 274 274 275 275 275 275 277 277 279 280 278 280 281 279 279 279 278 282 282 279 278 279 281 281 282 281 281 280 281
269 269 270 270 270 271 272 272 273 273 274 274 274 275 275 276 276 277 278 279 279 279 278 279 280 280 281 279 278 276 277 279 279 278 280 279 281 280
268 269 269 269 270 270 271 271 272 272 272 273 274 275 275 275 276 277 277 277 277 278 278 279 279 278 277 277 277 277 275 276 278 279 279 278 279 279

GFSNE_sfc_thetae_018.txt.gz
Theta_e
296 296 295 294 295 294 294 292 289 286 287 292 293 299 299 300 300 300 301 300 299 297 297 299 300 300 301 303 306 306 306 307 308 308 308 309 309 312
297 296 296 296 295 295 293 293 292 289 287 290 291 294 296 295 297 298 298 298 297 296 296 297 298 299 299 299 299 300 302 305 305 305 306 306 307 308
295 295 294 295 293 293 293 292 291 291 288 290 292 294 294 295 296 297 297 297 297 296 295 296 296 296 297 297 297 298 298 299 302 303 304 304 305 307
292 293 292 291 291 292 291 291 291 291 289 287 290 291 292 294 295 295 294 295 296 295 296 295 295 295 295 295 295 296 296 297 296 298 300 301 302 303
291 290 290 290 289 289 290 289 289 289 289 288 288 290 291 293 292 293 293 294 294 294 293 293 294 294 294 295 294 294 295 295 295 294 295 296 297 298
290 290 289 289 288 288 287 287 287 287 288 287 287 287 289 291 291 289 289 292 291 292 292 291 291 292 293 293 293 294 294 295 294 294 293 294 294 295
288 288 288 288 286 286 285 286 287 286 287 286 285 286 286 286 286 288 287 288 290 292 291 293 294 294 294 292 292 293 293 293 294 294 294 293 294 294
286 287 287 287 286 286 285 284 285 283 283 283 283 283 284 285 286 287 286 285 283 292 290 289 292 291 293 294 292 292 293 292 294 294 294 294 294 293
286 286 285 286 286 285 284 285 284 283 282 283 281 283 283 285 286 285 285 284 284 287 289 286 290 289 291 291 291 292 292 292 293 293 293 293 292 292
286 285 285 285 284 284 283 283 284 285 286 285 285 284 285 285 286 286 286 286 287 287 288 284 289 287 290 291 290 291 292 291 292 292 292 292 291 291
283 283 284 283 284 284 284 283 283 284 286 286 286 286 286 286 286 286 284 283 283 284 287 285 287 287 289 290 293 290 291 290 290 291 291 291 291 290
282 283 283 284 283 283 283 283 281 282 283 284 284 285 286 287 285 286 286 283 283 283 287 284 284 285 284 290 291 291 293 289 289 290 291 291 291 295
281 282 284 283 281 281 281 281 281 282 281 283 283 283 285 286 287 288 288 286 284 284 286 286 286 285 285 286 289 291 292 292 292 292 289 291 290 291
281 283 284 281 281 280 280 280 279 280 282 283 283 283 283 284 286 287 288 288 288 287 288 287 286 285 284 284 284 289 291 292 290 290 293 291 289 288
282 282 280 280 280 280 279 279 279 282 281 281 282 283 285 286 287 287 288 288 288 288 288 288 287 287 286 284 285 287 287 290 289 290 290 292 292 293
280 282 280 279 280 280 281 280 281 281 280 281 281 283 284 285 285 286 285 286 285 285 287 287 287 286 284 286 285 285 288 286 289 289 289 290 291 291
279 280 279 278 279 279 279 280 280 280 280 281 281 282 283 284 285 286 284 285 284 284 285 286 286 286 287 286 284 286 286 287 289 289 288 287 289 290
278 276 276 276 276 277 277 277 278 278 279 279 280 281 281 282 283 284 284 283 283 285 284 286 286 284 285 285 286 285 286 287 288 289 288 285 286 290
275 275 274 275 275 276 276 277 277 278 279 279 279 279 280 281 283 283 284 284 284 285 285 287 285 284 281 281 283 281 284 285 287 287 287 284 285 288
274 274 273 274 275 275 275 275 276 277 277 278 278 278 279 280 280 281 283 283 284 284 284 285 285 284 283 282 283 281 281 282 284 284 285 286 283 279
272 273 273 273 274 275 275 275 276 276 277 277 277 278 278 279 279 280 280 281 281 282 280 280 281 280 284 285 282 280 281 281 282 284 285 283 282 283
272 272 273 273 273 274 274 275 276 276 276 276 277 278 278 279 278 279 279 279 280 280 280 281 282 283 282 281 281 278 281 281 280 279 279 280 281 281
272 272 273 273 273 273 273 274 275 275 275 275 276 277 278 277 279 279 279 279 279 279 279 280 281 282 280 280 280 280 277 279 281 281 280 279 279 280

GFSNE_sfc_thetae_021.txt.gz
Theta_e
298 297 296 296 296 295 293 292 289 285 287 291 292 298 301 302 302 302 302 301 299 300 299 298 299 299 300 301 302 306 308 308 308 308 309 309 310 310
297 296 296 297 296 296 295 294 292 288 286 291 293 296 297 295 298 299 300 299 299 298 297 297 297 299 300 301 301 301 303 304 305 306 306 307 307 307
296 295 295 295 294 294 294 293 292 292 289 291 293 294 295 296 296 298 299 299 299 297 296 296 296 297 298 298 298 299 299 299 299 302 305 305 305 306
293 293 293 292 292 292 292 291 291 291 290 289 291 292 293 295 296 297 295 295 297 296 296 296 296 296 296 295 295 296 296 296 297 297 298 301 302 303
291 290 290 290 290 290 290 290 290 289 290 289 288 291 292 293 293 294 295 296 295 296 295 295 295 296 295 295 294 294 295 294 294 294 295 296 297 299
290 290 290 289 289 289 288 288 288 287 288 288 288 288 290 292 292 291 291 293 293 293 293 292 294 294 294 293 293 293 293 294 293 293 293 293 293 295
288 289 290 290 288 287 286 286 285 285 286 286 287 288 288 288 287 289 289 290 292 293 292 293 294 295 294 293 293 293 293 294 294 293 293 293 293 293
286 287 288 289 288 288 287 286 285 283 282 283 283 283 284 286 287 287 287 286 284 292 290 290 292 292 293 294 293 292 293 292 293 292 292 293 293 293
286 287 286 287 287 287 287 286 285 285 283 283 281 282 283 285 285 285 286 286 286 288 289 287 292 290 293 291 292 291 291 292 293 293 293 293 292 292
285 285 285 285 286 285 284 284 285 285 286 286 285 285 286 287 286 286 285 286 287 288 289 284 289 288 291 293 291 291 291 291 292 292 292 291 291 291
283 284 284 284 285 285 284 283 283 284 286 287 287 286 286 286 286 286 284 283 283 284 288 286 287 287 289 290 292 291 290 290 290 291 291 291 291 291
283 283 283 284 284 284 284 283 281 282 283 284 284 285 286 286 285 287 285 282 282 282 287 285 286 286 284 290 291 292 292 290 290 290 290 290 291 292
281 282 284 282 282 282 282 281 281 282 281 282 283 284 285 285 286 288 288 286 284 284 287 286 285 286 286 285 289 291 292 292 292 292 290 290 290 291
280 283 284 282 281 281 280 281 280 280 281 282 283 283 284 285 286 288 288 289 289 288 289 288 286 286 285 285 284 289 291 292 292 290 291 292 289 290
282 281 281 281 281 281 282 280 280 281 282 281 282 283 285 286 287 288 289 289 289 289 288 288 287 287 286 284 284 286 287 289 290 289 291 290 289 290
279 280 281 280 281 282 282 282 282 282 281 281 282 283 285 286 286 287 287 286 286 286 288 288 287 287 284 285 285 285 287 286 289 289 289 288 289 291
278 281 279 278 278 279 280 281 281 281 280 281 281 282 283 283 284 286 286 285 284 284 285 287 287 287 286 285 283 285 286 287 289 289 288 288 289 289
278 277 276 276 276 277 277 278 279 279 279 280 280 280 280 281 282 285 286 284 283 284 285 286 285 284 284 284 286 284 286 286 288 289 288 287 287 290
276 276 275 275 275 276 276 276 276 278 279 279 279 279 280 280 281 283 284 284 285 285 286 287 287 284 281 279 283 282 283 285 286 286 288 287 285 287
275 274 274 275 275 275 275 275 276 278 278 278 279 279 279 280 281 280 281 282 282 283 284 284 284 282 281 281 282 280 281 281 283 284 285 287 285 281
274 274 274 274 274 275 275 276 277 277 277 277 278 278 279 280 280 280 280 281 281 281 281 280 281 281 283 285 282 281 281 281 281 281 283 285 283 283
274 273 274 274 274 274 275 276 276 277 277 276 277 278 279 280 279 279 280 280 280 280 280 282 283 282 282 281 281 279 281 282 281 280 280 280 280 278
273 273 274 274 274 274 274 274 274 275 275 276 276 277 279 278 279 280 280 280 279 280 280 280 281 282 280 280 280 280 278 279 281 282 280 280 280 280

GFSNE_sfc_thetae_024.txt.gz
Theta_e
296 296 295 295 295 294 292 290 287 282 283 288 289 293 295 300 301 301 300 301 299 299 300 301 301 301 301 300 301 301 303 308 310 310 310 310 311 311
295 294 294 295 295 295 294 293 291 287 283 288 289 292 294 295 295 296 297 301 299 298 298 298 298 299 299 299 300 301 301 302 306 307 307 307 308 309
292 292 292 293 292 293 292 291 290 290 286 288 291 292 291 292 293 294 295 294 294 297 297 296 296 296 297 297 298 299 299 299 299 299 301 304 306 306
290 290 290 291 289 289 289 288 287 287 285 284 285 286 287 290 290 290 292 294 292 296 296 296 296 296 295 295 296 296 295 296 296 297 297 297 298 303
287 287 287 288 286 287 287 287 286 287 285 284 283 285 286 287 287 288 289 289 293 296 295 295 295 296 295 295 295 295 294 294 294 294 294 295 296 297
286 286 286 286 285 285 285 284 285 283 283 282 282 283 284 286 287 285 285 287 287 292 293 292 293 295 295 295 295 295 294 294 294 293 292 292 292 294
284 285 286 287 290 287 285 282 282 281 281 280 280 282 282 283 283 285 284 284 285 288 287 287 287 288 291 294 294 294 294 294 293 293 293 292 292 292
281 283 285 287 287 288 288 288 285 281 279 279 279 278 279 281 282 281 280 280 279 286 284 282 286 285 288 289 292 292 292 291 292 293 293 293 292 292
281 282 283 285 285 284 284 285 285 286 283 281 279 279 279 280 281 281 280 280 281 283 284 282 280 283 286 290 292 292 291 291 291 291 292 292 291 291
281 280 280 281 282 283 282 281 282 283 284 285 283 283 283 284 284 285 283 283 283 282 284 280 279 283 282 285 291 292 292 291 291 291 291 291 291 291
280 281 281 280 283 284 282 281 281 282 285 287 286 286 287 287 286 284 281 280 278 280 283 283 281 281 282 284 284 291 291 291 291 290 290 291 291 290
279 281 282 282 282 282 281 280 279 279 280 281 282 282 283 284 285 284 282 279 278 277 281 281 281 281 278 283 285 285 283 289 290 290 290 291 291 287
278 278 280 282 283 282 282 279 279 281 280 279 280 280 281 283 284 285 284 283 281 279 283 283 282 279 280 280 280 282 285 286 285 286 290 290 291 289
277 279 280 281 282 281 281 281 282 280 279 278 279 280 281 283 285 286 286 286 287 285 285 286 284 282 278 279 280 281 284 284 282 282 282 287 290 290
278 279 280 281 281 280 281 282 281 279 280 279 279 281 281 283 284 283 284 285 286 286 287 286 285 284 283 280 279 278 279 283 286 287 280 281 282 284
277 277 278 279 279 280 280 281 281 280 279 279 279 280 283 283 281 282 283 282 279 282 284 286 285 285 283 281 279 277 279 279 283 286 281 286 287 287
276 278 277 276 276 277 277 278 279 279 278 278 279 279 280 280 280 281 283 279 276 277 279 281 283 283 282 282 280 279 279 280 281 283 286 282 284 286
276 275 274 274 274 275 275 275 276 277 277 278 278 278 278 278 279 280 283 282 277 277 280 283 284 282 281 280 285 280 278 279 282 285 286 284 280 281
274 274 273 273 274 274 274 275 274 276 277 276 278 277 278 278 279 279 279 280 279 280 282 281 282 282 279 276 279 283 281 282 282 279 281 284 284 281
273 273 272 273 273 273 273 274 274 276 275 275 276 276 276 277 278 277 278 279 279 280 278 277 275 276 277 276 277 275 282 279 280 279 279 283 280 282
272 272 272 272 272 272 272 273 273 274 275 274 274 275 276 278 277 276 278 277 278 279 277 275 276 278 278 278 280 276 277 281 279 277 278 279 280 279
269 271 272 272 272 272 271 272 272 272 272 272 272 273 275 277 276 277 277 277 277 277 278 277 281 281 279 279 278 269 273 273 279 281 281 279 276 276
267 270 271 271 271 271 271 271 270 270 270 270 271 272 274 274 276 277 274 277 277 272 273 276 278 279 278 277 275 275 271 273 275 278 274 280 281 281

GFSNE_sfc_thetae_027.txt.gz
Theta_e
291 292 294 294 295 294 293 291 288 282 281 284 285 290 290 293 298 298 299 299 298 299 299 300 302 302 301 300 299 298 299 301 302 309 310 310 311 312
292 291 292 293 292 293 293 293 292 288 284 285 288 289 290 293 295 296 298 298 296 297 298 299 300 300 300 300 300 300 298 299 300 302 306 307 308 308
289 289 289 290 290 291 291 291 290 289 284 286 287 289 288 287 290 292 294 293 294 295 295 297 297 297 297 297 298 299 299 300 299 299 299 300 302 305
284 284 284 287 285 286 286 286 286 286 283 280 282 283 284 285 286 287 290 292 290 295 297 296 296 296 296 295 296 296 297 297 297 297 297 297 297 298
283 283 283 283 283 283 284 284 284 285 282 280 279 282 282 284 285 286 286 286 290 294 294 294 295 296 296 296 296 295 295 294 294 294 294 295 296 295
283 283 283 283 282 282 284 283 283 281 280 279 279 279 280 283 283 282 282 284 285 290 291 290 293 294 295 296 295 295 295 295 294 293 293 292 292 293
282 282 283 284 287 287 285 283 281 279 279 278 278 278 277 278 279 281 281 281 282 284 284 285 285 286 287 292 294 295 295 295 294 294 293 292 291 292
279 280 281 283 284 284 285 285 284 281 279 277 277 276 277 277 279 278 278 278 277 283 282 281 284 283 286 287 291 292 293 293 292 292 293 292 292 292
278 279 279 281 281 281 282 284 284 285 283 282 279 279 278 279 279 278 278 277 278 281 281 279 277 280 283 288 291 292 292 292 291 291 291 290 291 291
279 279 278 279 280 281 280 280 280 281 282 282 280 281 281 282 283 283 281 283 283 281 281 278 276 279 279 282 289 291 292 292 292 291 291 290 290 290
280 280 280 279 281 283 281 279 279 280 284 285 286 286 286 286 286 284 281 280 278 279 280 280 279 277 277 280 282 289 290 291 291 291 291 291 290 290
278 279 280 280 281 282 281 278 276 277 279 279 279 281 282 282 283 283 281 279 279 278 281 279 279 276 274 277 283 284 281 288 290 290 291 291 290 288
276 277 278 280 280 282 282 279 278 279 280 279 279 279 280 281 282 283 284 282 280 280 282 282 277 277 278 278 276 278 280 283 284 286 290 291 291 290
276 277 278 280 282 281 281 282 282 281 279 278 278 278 279 281 283 284 286 285 285 284 284 284 282 281 281 279 277 279 277 280 279 278 280 286 289 290
277 278 279 280 280 279 281 280 281 280 279 278 278 278 280 282 283 283 283 283 285 284 286 287 285 285 283 281 278 277 278 278 278 282 286 285 281 278
277 277 278 278 278 278 278 278 279 278 277 277 277 278 280 280 279 281 278 279 276 277 282 284 285 284 282 282 282 281 280 279 279 285 282 275 279 282
276 276 275 274 274 276 276 276 277 277 276 276 277 277 278 279 279 280 280 282 277 275 277 280 285 285 284 282 280 281 281 279 278 278 283 284 285 286
274 272 271 272 272 273 273 274 275 276 276 276 277 276 276 277 277 279 278 276 278 280 281 283 283 282 282 281 284 282 279 278 277 280 284 283 283 281
272 271 270 271 271 272 272 272 272 275 276 274 274 274 276 277 277 277 277 277 278 280 278 276 276 276 277 276 277 282 281 280 278 275 276 276 281 282
270 271 271 271 271 271 271 271 272 273 272 272 272 273 274 276 275 275 276 275 276 277 276 274 272 274 274 273 273 270 282 275 274 274 276 279 278 283
267 269 271 271 270 270 269 269 270 270 269 269 270 271 271 274 274 275 275 274 273 276 276 275 276 277 278 275 274 270 271 281 276 272 274 273 277 279
262 266 269 270 269 269 267 268 269 268 267 268 267 268 270 273 272 274 274 274 272 269 272 274 278 281 277 277 274 268 269 268 276 281 281 278 274 275
260 263 264 265 268 269 270 268 266 264 266 266 266 267 267 270 271 272 272 271 273 270 271 274 276 276 276 275 273 271 267 269 272 274 270 279 281 281

GFSNE_sfc_thetae_030.txt.gz
Theta_e
290 290 290 292 293 292 291 291 286 283 284 286 284 288 289 290 293 295 295 298 297 298 297 298 300 301 303 302 301 300 299 298 298 300 305 309 310 310
290 289 288 288 288 288 289 290 289 287 283 285 286 287 289 291 292 291 294 298 297 296 295 296 298 299 300 301 301 301 299 298 297 297 299 303 306 308
284 284 284 284 283 284 284 285 286 288 284 283 286 286 285 285 287 288 289 289 292 296 295 295 296 297 298 299 299 299 300 299 299 298 298 299 300 301
283 282 283 284 281 282 282 282 283 284 282 280 281 281 282 283 284 284 287 289 287 292 295 295 296 295 295 296 296 297 297 297 298 298 298 298 297 297
282 282 282 281 280 280 281 281 282 284 282 280 279 280 281 282 282 283 284 284 288 292 292 293 295 296 296 296 296 296 296 295 295 295 295 295 296 296
282 281 281 280 280 280 281 281 282 280 279 279 278 278 279 281 280 280 279 281 282 287 289 290 291 292 293 294 295 295 295 295 294 293 293 292 292 293
281 281 281 282 283 283 282 281 280 280 279 279 278 277 277 277 276 278 277 279 280 282 282 284 284 285 287 289 292 294 294 294 294 294 293 292 291 292
279 279 279 281 280 282 282 283 282 280 279 279 279 278 277 277 277 277 276 276 275 281 281 280 283 283 285 285 290 291 292 293 294 294 293 292 292 292
278 278 279 281 281 279 281 282 282 283 282 281 279 279 278 278 278 277 276 276 276 280 279 277 276 279 282 286 290 291 291 292 292 292 291 291 291 290
279 279 278 278 278 279 279 280 280 280 281 281 280 280 280 281 280 281 280 278 280 281 280 278 277 277 279 280 287 289 291 291 292 291 291 290 290 289
279 279 278 278 280 281 280 279 279 279 282 283 284 284 284 285 285 282 280 279 277 279 279 278 278 277 277 278 281 288 289 290 291 291 291 291 290 290
277 277 279 278 280 281 279 278 277 278 277 278 278 280 281 280 282 280 279 276 277 276 279 278 278 275 272 276 280 281 281 287 289 290 291 291 291 288
275 276 277 279 281 281 281 279 279 280 280 280 279 279 279 280 281 282 283 281 279 278 281 280 276 276 277 275 275 277 277 278 279 282 289 290 291 290
275 276 278 280 280 280 280 281 280 280 279 279 278 278 279 280 282 283 284 285 284 283 283 283 280 278 277 277 278 278 277 278 276 278 280 285 288 290
276 278 278 278 279 278 279 279 279 277 277 276 276 278 279 280 282 282 282 282 283 285 285 285 283 282 283 280 278 277 278 277 283 281 278 280 280 277
276 277 276 277 276 277 277 277 277 277 277 276 276 277 279 279 279 280 279 282 281 278 280 283 284 285 282 282 282 280 278 279 279 283 283 281 276 278
270 272 273 273 273 274 274 275 276 276 275 276 276 276 277 278 278 279 279 279 277 278 278 283 282 285 284 283 279 280 279 278 278 279 282 282 279 284
269 267 269 270 270 271 271 272 273 273 274 274 274 274 275 276 277 277 276 273 277 278 275 275 281 282 282 281 283 281 280 279 278 282 284 282 282 283
265 265 266 269 269 271 270 270 270 272 273 272 272 272 273 275 275 275 276 276 277 277 274 272 272 271 274 270 274 281 277 277 276 273 274 278 277 277
266 264 267 269 269 270 269 269 269 269 268 269 269 270 270 273 273 274 274 272 274 276 275 273 272 273 274 271 272 269 280 269 273 270 271 272 276 282
264 265 262 268 268 269 267 265 263 265 265 265 266 268 268 271 271 272 272 271 269 273 272 271 273 275 276 273 269 268 268 279 275 274 272 275 273 276
260 263 264 264 264 266 265 264 264 262 264 265 264 264 265 268 269 270 270 268 270 267 270 273 276 278 275 277 271 268 268 267 274 280 280 279 273 272
258 261 260 259 261 263 267 264 264 261 263 264 264 264 264 265 268 267 266 267 268 267 270 272 273 274 276 275 273 271 266 266 270 270 269 278 281 281

GFSNE_sfc_thetae_033.txt.gz
Theta_e
288 287 287 288 288 288 287 287 285 281 282 283 283 289 289 289 291 289 292 296 297 297 297 297 299 300 300 300 301 300 299 299 299 300 304 309 310 310
288 285 283 284 283 283 283 284 284 284 281 286 284 286 288 288 289 286 287 292 295 296 295 297 296 297 298 299 299 301 300 299 298 298 299 301 305 307
282 282 282 282 282 282 282 282 281 281 279 282 284 286 284 284 285 286 287 286 286 291 294 295 296 296 296 296 297 298 300 300 300 299 298 298 300 302
281 281 281 284 280 280 279 279 280 280 280 279 280 281 281 283 283 283 286 288 285 290 293 293 294 296 295 295 296 296 297 298 298 299 299 298 298 298
281 281 280 280 279 279 279 279 280 282 280 280 279 280 280 280 281 282 282 283 286 288 290 290 291 293 295 295 295 295 296 295 295 296 296 296 297 297
281 281 280 279 278 278 279 279 281 280 280 279 278 279 279 280 280 279 278 280 280 284 286 287 289 291 291 293 295 296 295 295 295 294 293 292 292 294
281 281 281 281 284 282 280 278 278 278 278 278 278 278 278 277 276 277 277 277 278 280 280 281 283 283 285 288 290 292 294 295 294 294 293 292 291 292
279 280 280 282 281 282 282 282 281 278 277 277 277 277 277 277 277 277 276 275 275 279 279 278 280 281 282 283 288 290 291 292 293 294 293 292 292 291
279 279 279 280 280 279 280 281 281 282 281 280 278 278 278 278 278 276 276 275 276 278 278 277 276 278 281 285 288 289 290 291 291 291 292 292 291 290
278 278 277 277 278 279 279 279 280 280 281 281 280 280 280 280 280 280 278 279 279 280 279 278 277 276 279 280 286 288 289 290 291 291 291 291 290 290
277 278 277 277 279 281 279 278 278 279 282 283 283 283 283 284 284 282 279 279 277 278 278 276 277 275 275 278 280 286 288 289 290 290 291 291 290 290
276 277 278 279 280 281 279 278 277 278 279 279 279 279 281 280 281 279 277 276 276 272 278 277 277 275 272 274 278 279 281 287 288 290 290 291 291 287
275 275 277 279 280 280 280 279 279 279 279 280 280 280 280 280 280 280 280 279 277 277 281 280 277 277 277 274 274 275 277 277 277 280 288 290 290 290
275 276 278 279 279 279 278 280 279 278 277 277 277 278 278 279 281 282 283 283 283 282 283 282 278 278 277 274 274 276 276 274 275 275 276 283 287 290
275 277 277 277 277 277 277 278 277 276 276 275 275 276 278 279 281 281 282 282 282 283 285 284 283 282 281 280 278 276 277 278 280 280 282 281 278 279
273 272 272 275 274 275 275 275 276 276 275 274 275 276 278 278 279 280 279 280 281 276 279 283 284 283 282 282 282 279 279 279 278 280 283 282 281 281
267 266 268 270 271 272 272 273 273 273 272 273 273 274 275 276 277 279 279 278 276 279 280 281 283 283 284 283 280 280 278 277 275 275 280 277 278 277
267 263 260 262 266 270 269 270 271 270 270 271 271 272 272 273 276 277 277 275 277 278 276 275 275 281 282 281 283 279 281 280 280 278 281 281 278 279
263 261 258 260 261 269 269 269 268 268 269 269 269 269 270 272 273 275 275 275 275 274 274 271 271 270 275 273 275 281 278 280 277 279 277 278 277 274
264 261 260 261 263 268 268 267 267 266 265 266 266 266 267 270 271 272 273 271 270 273 273 272 271 272 272 270 273 269 279 270 274 274 271 272 273 280
264 264 260 262 262 263 261 260 260 263 263 262 263 264 264 267 269 270 270 268 268 271 270 270 270 274 274 270 267 267 269 278 275 275 275 275 275 276
260 263 263 262 259 259 257 257 260 260 263 263 262 262 262 264 267 267 268 267 267 267 269 272 274 276 272 274 269 267 272 266 273 279 280 278 270 270
260 261 259 257 258 258 261 257 258 256 261 263 263 263 262 262 266 265 265 266 267 267 268 269 271 273 274 273 270 271 267 266 271 271 268 278 280 280

GFSNE_sfc_thetae_036.txt.gz
Theta_e
287 288 286 287 285 285 285 286 284 277 279 282 285 289 290 292 291 289 289 292 293 296 297 297 298 299 300 300 301 302 300 300 301 304 310 311 313 314
288 285 283 283 282 283 283 283 284 282 278 283 284 286 288 289 289 289 287 290 290 292 292 295 296 296 295 297 298 299 300 299 298 299 301 307 309 310
283 282 282 282 281 281 281 281 280 281 278 280 283 285 285 285 286 287 288 288 287 290 293 293 294 296 296 296 297 297 297 297 299 299 298 299 303 307
282 281 281 283 280 280 280 279 279 280 279 278 281 282 282 284 284 283 285 287 286 287 290 291 291 292 295 295 296 296 296 296 296 299 300 300 300 301
281 281 281 281 279 279 279 279 279 281 282 281 281 281 281 282 282 283 283 283 285 287 287 289 289 289 292 295 296 296 295 295 295 296 296 297 298 299
281 281 281 280 279 279 279 279 279 279 279 278 279 279 280 282 281 281 280 282 282 284 285 286 287 288 291 291 293 295 295 295 294 294 294 293 293 295
281 281 281 282 284 283 281 280 279 277 278 277 277 278 278 279 278 280 279 279 280 282 282 283 283 285 286 287 288 290 292 295 295 294 294 293 292 293
280 280 280 281 280 281 281 281 280 278 277 277 277 276 278 278 279 279 278 277 277 281 281 281 283 283 284 285 287 289 290 291 292 294 294 293 292 292
277 277 277 278 279 278 279 280 280 281 281 280 278 279 278 279 280 279 277 278 278 280 280 279 281 281 284 285 287 288 289 290 290 291 292 292 291 291
277 277 277 276 278 279 279 279 279 280 280 280 281 280 281 282 281 281 280 279 279 280 281 278 281 280 283 283 285 287 288 289 290 290 291 291 291 290
277 277 277 277 279 282 280 278 278 279 282 283 283 283 283 283 283 282 279 278 277 279 280 280 280 279 280 282 283 285 287 288 289 290 290 291 290 290
276 277 278 278 280 280 279 277 276 278 278 279 281 281 282 281 282 281 279 277 277 276 279 278 279 278 277 279 280 282 284 286 288 289 290 290 290 291
275 275 277 279 279 279 279 277 278 278 278 278 279 280 281 281 281 281 280 278 277 277 281 280 279 279 279 278 280 281 281 282 284 287 289 290 290 290
274 275 276 278 278 278 277 278 278 277 277 276 276 277 278 278 280 282 283 282 282 281 283 282 281 280 279 278 278 282 282 281 282 283 284 285 288 290
274 275 276 276 276 276 276 277 276 275 275 274 274 275 277 279 280 281 282 283 283 284 284 284 283 282 281 280 280 279 281 283 281 281 282 282 284 283
272 271 270 274 271 272 273 274 274 273 272 272 273 274 276 277 278 280 280 281 281 281 282 284 284 284 282 282 282 281 281 281 282 281 283 282 283 284
265 265 267 267 268 270 270 271 272 271 270 270 272 272 273 274 276 279 279 279 278 279 279 280 283 284 284 284 281 282 282 282 282 281 283 282 283 284
267 262 258 258 262 267 267 268 269 268 268 269 270 270 270 271 274 276 277 277 277 278 277 277 278 282 283 282 283 281 281 282 282 282 281 280 281 284
263 261 256 256 259 266 267 267 267 267 268 267 268 267 269 270 272 273 274 274 274 275 276 277 276 276 277 276 278 281 279 280 279 281 281 283 282 282
265 262 259 259 263 265 266 266 265 264 264 265 265 265 265 268 270 270 271 270 271 273 274 275 275 275 276 274 276 278 278 276 276 276 276 278 278 279
264 265 261 263 263 264 259 258 256 259 261 262 263 263 263 265 267 268 269 267 267 271 270 272 273 275 276 276 273 275 277 278 277 276 276 276 276 278
262 264 265 264 261 261 257 254 258 257 259 263 263 263 263 263 265 265 266 267 268 269 269 272 274 276 277 276 275 272 275 274 275 279 279 278 276 275
263 263 262 260 260 259 262 259 258 255 259 260 262 263 263 263 265 265 265 267 268 267 268 269 272 273 275 275 274 275 273 273 274 276 277 278 280 280

GFSNE_sfc_thetae_042.txt.gz
Theta_e
297 296 294 294 294 293 293 291 288 284 285 289 289 293 293 294 294 294 294 294 295 293 292 292 293 294 295 296 298 300 302 302 303 303 310 316 318 319
295 294 294 293 293 292 292 291 289 287 284 288 289 291 292 291 292 293 293 294 292 293 292 292 292 293 294 295 297 296 299 300 300 300 301 304 311 315
294 293 292 293 291 292 291 290 289 288 284 287 289 290 290 290 290 291 292 293 293 294 291 290 290 291 291 292 295 297 297 297 298 298 299 300 302 308
292 292 291 290 291 291 290 289 288 288 285 283 286 286 286 288 288 288 289 290 291 293 290 288 289 289 290 291 292 295 297 296 296 296 297 298 299 301
292 291 290 290 289 289 288 287 287 286 285 284 283 285 286 287 286 287 287 289 290 292 291 289 290 289 289 289 290 292 296 295 295 295 295 295 296 298
291 291 290 288 287 287 285 285 285 284 283 282 281 282 283 285 284 283 283 286 287 289 291 289 289 290 289 289 289 292 294 295 294 294 294 293 293 295
289 288 287 285 283 283 283 283 283 281 281 280 280 281 282 283 282 284 283 285 286 287 288 290 290 291 292 289 290 291 290 295 295 294 294 294 292 294
286 286 286 284 284 282 282 281 282 281 280 279 280 280 281 282 283 283 283 282 281 288 286 287 289 289 290 292 289 288 289 290 290 295 294 293 293 293
285 284 284 284 283 283 282 282 283 283 282 283 281 281 282 283 283 283 283 282 282 285 286 283 288 288 289 290 288 287 288 289 289 290 292 293 292 291
285 284 284 283 283 281 281 281 282 282 283 283 283 282 283 284 284 284 284 284 285 285 286 282 286 286 288 289 289 288 288 288 288 289 290 291 292 291
284 284 283 282 280 280 279 280 280 280 283 282 282 282 283 283 284 284 282 281 281 282 286 284 285 285 287 288 291 288 288 288 288 289 290 290 290 291
284 283 282 280 278 279 279 279 278 279 279 280 281 282 284 284 283 285 284 281 281 281 285 284 284 285 283 289 289 291 291 287 287 288 289 290 290 294
282 282 282 279 278 278 278 279 278 278 279 280 280 281 282 282 284 285 285 284 282 282 285 285 284 284 284 285 288 289 290 290 291 290 288 289 290 291
281 282 281 278 277 277 277 276 276 278 280 279 279 279 280 281 282 283 285 285 286 285 287 287 284 284 284 284 284 288 290 291 291 290 291 290 289 290
282 280 277 276 277 277 276 276 277 278 277 277 277 278 280 282 283 285 286 287 287 287 287 287 286 285 286 284 285 286 287 288 290 289 290 290 290 290
281 281 279 276 277 277 278 278 278 277 276 277 277 278 280 281 282 283 283 284 285 286 287 287 287 286 285 286 286 286 287 286 288 288 287 290 290 292
278 280 280 279 278 278 278 278 278 277 276 277 277 277 278 279 280 282 282 283 283 283 284 286 287 288 287 287 285 286 287 287 289 288 288 286 288 289
279 279 279 279 277 277 277 277 278 276 275 276 277 277 276 277 278 280 280 280 281 281 282 283 285 286 285 284 284 286 288 287 288 289 287 284 286 289
278 280 279 279 278 277 277 277 276 276 275 275 276 276 276 276 277 278 278 278 279 280 281 282 282 282 281 281 284 282 285 286 285 285 286 286 286 288
279 279 279 279 279 278 277 277 276 276 276 275 275 276 276 275 276 276 277 276 277 278 279 281 281 280 279 280 280 283 281 283 284 284 285 286 286 281
280 280 281 280 279 279 278 277 276 276 274 274 275 275 275 275 275 275 276 275 276 277 277 278 280 280 282 283 280 283 283 280 281 282 283 283 283 284
281 281 281 281 280 279 278 277 277 277 276 275 275 275 276 275 275 274 275 275 276 276 277 279 281 281 281 281 281 281 282 283 280 280 280 279 281 282
282 281 281 281 281 280 278 277 276 276 276 275 275 275 274 274 275 275 275 275 275 275 276 277 279 281 281 280 280 282 281 281 283 281 281 279 279 280

GFSNE_sfc_thetae_045.txt.gz
Theta_e
298 298 297 296 295 294 293 292 289 285 285 289 290 294 294 295 295 295 295 294 295 294 294 294 294 293 293 294 295 297 299 299 301 302 305 307 309 316
297 297 295 295 294 294 293 292 292 288 285 289 290 292 293 291 293 294 293 294 293 294 293 294 293 292 292 292 293 294 298 299 299 300 301 304 305 308
296 295 294 294 293 292 293 292 291 290 286 288 290 291 291 290 290 292 292 292 292 292 293 293 292 291 291 291 291 292 294 298 298 298 299 301 303 304
293 293 292 292 292 292 291 290 290 289 287 285 287 288 287 289 289 289 289 289 290 290 292 291 290 291 291 290 291 291 292 295 297 297 297 298 299 300
292 292 291 291 289 289 289 288 287 286 287 285 284 286 287 287 287 287 287 288 289 291 291 291 291 292 290 290 290 290 291 293 295 295 295 295 296 297
292 291 290 289 288 286 285 285 285 284 284 283 282 283 284 285 286 284 284 287 286 288 290 290 291 291 290 291 291 290 291 293 294 294 294 293 293 295
290 289 289 286 284 284 283 283 283 282 281 281 280 281 281 282 282 284 284 285 286 288 287 288 289 291 292 292 291 291 291 291 294 294 294 293 293 294
287 288 287 287 286 285 284 283 282 280 280 281 281 280 281 282 284 284 283 282 280 288 286 286 289 289 290 292 289 289 289 289 290 291 294 294 293 293
287 286 285 286 285 285 284 283 283 284 282 283 281 281 281 282 283 282 282 282 282 286 286 284 288 287 289 290 290 289 288 288 289 290 290 293 293 292
287 286 285 285 284 281 281 280 281 282 283 283 283 282 282 283 283 283 283 284 285 285 286 282 287 286 289 290 290 290 289 288 288 289 290 290 291 291
286 286 285 284 281 280 279 279 279 280 283 283 283 283 283 284 284 284 282 282 281 282 286 284 285 285 287 289 291 290 289 289 288 288 289 290 290 291
285 285 282 281 279 279 278 278 277 279 279 279 281 282 283 284 284 284 284 281 282 281 285 283 284 284 283 289 290 292 291 288 288 288 288 289 290 290
283 283 284 280 279 278 278 278 278 278 278 280 280 281 282 283 284 285 285 284 282 281 286 285 283 284 284 284 287 290 291 292 290 289 288 289 290 289
282 283 283 280 278 278 278 278 277 278 280 279 279 279 280 281 282 284 285 286 287 285 287 287 284 284 283 283 283 288 290 292 292 291 292 290 289 289
283 282 280 280 279 279 279 278 277 280 278 277 278 278 279 281 283 284 285 286 287 288 287 288 286 286 285 283 283 286 286 289 291 290 291 291 290 290
283 283 281 280 279 279 279 281 280 280 278 277 278 278 280 281 281 283 282 283 284 286 287 287 287 287 284 285 285 285 287 285 289 289 289 291 291 292
280 281 281 282 281 281 281 280 280 280 278 278 278 278 278 278 279 281 281 282 281 282 283 286 287 286 286 285 284 286 286 287 288 288 287 286 288 291
280 280 281 281 280 279 279 279 280 279 278 277 277 278 277 276 277 279 280 280 280 281 281 283 284 284 285 284 283 285 286 286 288 288 287 285 286 290
278 280 281 281 280 280 280 279 278 279 277 278 277 277 277 277 277 277 278 278 278 279 281 283 283 282 279 280 283 283 285 285 286 286 287 286 286 285
280 280 281 281 281 280 280 279 279 279 278 277 277 277 277 277 276 276 276 276 276 277 278 280 282 280 278 277 279 283 282 284 284 284 285 287 285 283
282 282 283 282 281 281 281 280 279 278 277 276 277 277 277 276 276 276 276 276 276 277 276 277 280 281 281 282 280 281 282 281 282 283 283 284 284 284
283 282 283 283 283 282 281 280 279 278 278 278 277 277 277 276 276 276 276 275 275 275 276 278 281 282 281 280 280 282 282 282 281 280 280 280 281 280
284 283 284 284 283 282 280 280 279 278 278 277 276 276 276 275 276 276 276 276 275 275 275 276 278 280 281 280 279 281 281 281 282 281 281 280 280 280

GFSNE_sfc_thetae_048.txt.gz
Theta_e
293 293 292 292 293 293 290 288 284 281 282 285 285 288 289 289 291 290 289 293 294 294 294 295 295 295 295 295 295 295 295 296 298 300 301 303 305 309
293 293 292 292 291 290 289 288 287 285 282 284 285 286 287 290 290 288 288 293 292 293 293 293 294 294 295 294 294 293 293 294 295 299 299 301 303 305
292 292 292 291 289 289 288 288 287 285 282 284 285 286 285 285 286 287 288 287 287 291 292 292 293 293 294 293 292 292 292 292 293 296 299 299 301 302
292 290 289 291 288 287 286 284 284 283 281 279 282 283 282 284 284 284 286 287 286 290 291 292 292 292 292 292 292 292 291 291 292 293 296 298 299 299
290 289 289 288 285 284 282 282 282 283 282 280 280 282 281 282 282 283 284 284 287 290 290 291 291 291 292 292 292 292 291 291 291 292 294 295 296 296
290 290 287 285 282 281 281 279 280 279 279 279 279 279 280 281 282 281 281 282 283 287 288 289 290 291 292 292 292 292 292 291 291 292 293 293 293 295
288 287 286 286 287 282 280 279 279 278 277 277 277 278 279 279 279 280 280 281 282 283 283 284 285 285 287 290 292 292 292 291 291 292 294 293 293 294
284 284 284 286 285 284 285 283 282 277 277 277 278 278 278 279 281 280 278 278 277 282 283 281 285 284 286 288 290 290 291 290 290 291 291 293 293 293
283 283 283 285 283 281 282 282 281 282 281 280 278 279 279 279 278 277 277 277 277 280 281 279 281 282 286 288 289 288 290 289 289 289 290 290 291 291
284 283 282 281 278 279 278 277 278 279 280 281 279 279 279 279 279 280 279 279 280 281 282 277 279 280 282 284 289 290 291 289 289 289 289 289 289 291
283 283 283 280 280 281 277 276 277 277 281 282 281 282 283 284 284 282 278 278 276 279 282 280 279 281 283 282 283 290 290 290 289 289 289 289 289 289
282 282 281 279 279 279 274 274 273 276 276 276 277 280 281 282 284 282 281 279 279 275 282 280 280 282 278 281 281 283 283 289 289 289 288 289 289 286
280 280 280 280 280 279 278 275 275 276 276 276 277 278 279 280 280 281 281 278 278 277 282 282 281 280 279 280 284 286 281 281 281 283 288 288 289 288
279 280 280 281 281 280 278 279 279 277 275 274 275 276 276 278 279 280 282 283 284 284 285 284 281 280 279 279 280 285 285 281 280 280 281 285 288 289
279 281 282 281 281 279 281 279 277 275 273 271 273 273 275 278 280 280 281 281 283 284 287 284 280 281 278 280 280 282 283 283 283 279 279 280 280 279
280 281 279 278 276 276 276 278 277 275 273 272 271 275 276 276 277 279 278 279 279 282 285 285 285 283 281 280 281 280 282 281 282 279 279 279 280 282
277 276 276 278 277 276 276 276 276 276 274 272 271 273 275 275 275 277 279 278 277 278 280 282 285 285 284 281 280 281 281 284 280 279 280 278 279 280
276 274 274 275 277 275 273 274 274 274 274 273 272 273 274 273 274 276 278 277 275 276 277 279 281 281 283 281 283 280 283 284 284 282 280 278 279 280
275 274 275 277 278 278 275 274 273 273 274 273 272 271 272 275 273 274 275 276 275 274 276 278 280 277 276 275 280 283 281 282 280 279 280 280 281 282
279 276 277 279 277 277 276 275 274 272 272 272 269 269 268 271 272 272 273 270 273 275 275 276 277 276 274 273 275 278 282 278 278 278 281 279 279 282
279 278 278 279 280 278 278 275 271 270 270 267 268 269 267 270 269 271 270 270 272 274 273 274 275 277 278 277 275 277 278 282 281 279 278 276 279 278
279 280 280 280 281 280 278 275 272 271 269 270 270 267 267 268 268 268 267 267 270 271 273 274 277 279 279 280 277 278 275 273 279 281 281 279 276 274
281 281 280 280 280 279 278 275 277 273 273 270 269 268 266 266 269 269 269 270 271 270 271 272 274 277 278 279 276 278 277 272 276 274 272 280 281 281